Погода в Дзарджане

Погода в Дзарджане : погода сейчас, прогноз погоды и архив. Всё, что Вы хотите узнать о погоде в Дзарджане!

Поиск расширенной информации на нашем сайте:

Другие новости

Новости СМИ2

Главная страница сайта

Новости сайта

03.07.2017

Напоминаем, что на нашем специализированном сайте Метеоцентр.Азия вы можете получить высокодетализированные автоматические прогнозы погоды по пунктам России, СНГ и мира в авиационном формате (включающие направление и скорость ветра, видимость, явления погоды, количество и форму облачности, нижнюю и верхнюю границу облачности).


Погода в Дзарджане - сегодня

Время (UTC), дата Ветер
(°,м/с) 
Видим.   Явления Облачность Т
(°С)
Тd
(°С)
f(%) Тe
(°С)
Pmin
(гПа)
dP
(гПа)
Po
(мм)
O2
(г/м3)
Тmin Tmax R s Состояние
почвы
15 21.11.17 360 (С) 20000 м  позёмок  10/0 средняя, верхняя 
[Ac trans|Ci fib]
-10.7 -16 65 -16  1008.3  1.7  752  317           
18 21.11.17 360 (С) 20000 м  позёмок  10/0 средняя, верхняя 
[Ac trans|Ci fib]
-11.3 -16.6 65 -16  1009.9  1.6  754  318           
21 21.11.17 360 (С) 20000 м  позёмок  10/0 верхняя 
[Ci fib]
-15.6 -19.8 70 -21  1015.2  3.1  756  325           
00 22.11.17 360 (С) 8-10{14}  20000 м  позёмок  10/0 верхняя 
[Ci fib]
-18 -22.1 70 -26  1014.2  0.9  757  328  -18      26  неравномерный
сухой снег
100% 
03 22.11.17 360 (С) 20000 м  позёмок  8/0 верхняя 
[Ci fib]
-20 -24.1 70 -29  1015.7  1.5  758  331           
06 22.11.17 360 (С) 8-10{14}  20000 м  позёмок  10/0 верхняя 
[Ci fib]
-20.6 -25.5 65 -29  1016.7  759  332           
09 22.11.17 360 (С) 9-11{14}  20000 м  позёмок  4/0 верхняя 
[Ci fib]
-20.8 -25.6 65 -30  1018.5  1.8  760  333           
12 22.11.17 360 (С) 8-10{12}  20000 м  позёмок  4/0 верхняя 
[Ci fib]
-21.2 -26 65 -30  1019.7  1.2  761  334    -18       
15 22.11.17 360 (С) 20000 м  позёмок  8/0 верхняя 
[Ci fib]
-21.1 -25.9 65 -28  1020.6  0.9  761  334           
18 22.11.17 360 (С) 20000 м  позёмок  8/0 верхняя 
[Ci fib]
-21.6 -26.4 65 -28  1021.7  1.1  762  335           
21 22.11.17 360 (С) 5{11}  20000 м  позёмок  3/0 верхняя 
[Ci fib]
-22.1 -26.1 70 -29  1023.2  1.5  763  336           
00 23.11.17 360 (С) 5{10}  20000 м  позёмок  3/0 верхняя 
[Ci fib]
-23 -27 70 -30  1023.7  0.4  764  338  -23      26  неравномерный
сухой снег
100% 
03 23.11.17 360 (С) 20000 м  позёмок  10/0 верхняя 
[Ci fib]
-23.6 -27.6 70 -31  1024.4  0.7  764  339           
06 23.11.17 360 (С) 20000 м  позёмок  10/0 верхняя 
[Ci fib]
-24.1 -28.1 69 -31  1024.9  0.5  765  340           
09 23.11.17 360 (С) 20000 м  позёмок  10/0 верхняя 
[Ci fib]
-24 -28 69 -31  1025.6  0.7  765  340           
12 23.11.17 360 (С) 20000 м    10/0 верхняя 
[Ci fib]
-24 -28 69 -31  1026.6  766  340    -23.5       
15 23.11.17 360 (С) 20000 м    3/0 верхняя 
[Ci fib]
-24.5 -28.5 69 -31  1026.1  -0.5  766  341           
18 23.11.17 360 (С) 20000 м    3/0 верхняя 
[Ci fib]
-25.1 -29 70 -31  1025.7  -0.4  765  341           
21 23.11.17 360 (С) 20000 м    4/0 верхняя 
[Ci fib]
-24.8 -28.7 70 -31  1026.1  0.4  766  341           
00 24.11.17 360 (С) 20000 м    3/0 верхняя 
[Ci fib]
-25.4 -28.5 75 -30  1026.2  0.2  766  342  -25.4      26  неравномерный
сухой снег
100% 
03 24.11.17 360 (С) 20000 м    8/0 верхняя 
[Ci fib]
-26 -29.1 75 -29  1025.6  -0.6  765  343           
06 24.11.17 360 (С) 20000 м    10/0 верхняя 
[Ci fib]
-25.2 -28.4 75 -28  1025.2  -0.5  765  341           
09 24.11.17 360 (С) 20000 м    10/0 верхняя 
[Ci fib]
-26.1 -29.2 75 -29  1024.8  -0.4  765  343           
15 24.11.17 360 (С) 20000 м    4/0 верхняя 
[Ci fib]
-22 -25.2 75 -25  1020.5  -2.1  761  335           
18 24.11.17 360 (С) 20000 м    3/0 верхняя 
[Ci fib]
-23.4 -26.6 75 -26  1019.9  -0.6  761  337           
Время (UTC), дата Ветер
(°,м/с) 
Видим.   Явления Облачность Т
(°С)
Тd
(°С)
f(%) Тe
(°С)
Pmin
(гПа)
dP
(гПа)
Po
(мм)
O2
(г/м3)
Тmin Tmax R s Состояние
почвы

Для получения пояснительной информации подведите курсор к названию столбца.

ПОГОДА в Дзарджане - архив

Всё, что Вы хотите узнать о погоде в Дзарджане - удобно и подробно!

Выберите нужную дату (начиная с 1 января 2015* года) и нажмите кнопку "Найти".
Будут отображены архивные сводки погоды по пункту Дзарджан, начиная с указанной даты.


Отображать данные в формате CSV (для использования в таблицах Excel)


Внимание! Наш архив погоды предназначен исключительно для личного некоммерческого использования в познавательных целях. Если Вам необходимы официальные справки о состоянии погоды (для производственных, юридических, коммерческих и т.п. целей), обращайтесь в органы Росгидромета.

*Примечание: данная дата относится к архиву по метеостанциям СССР (Россия, СНГ, Балтия).
Архив по метеостанциям Зарубежной Европы и Азии (кроме Китая) хранится 10 дней, по другим регионам земного шара (Китай, Африка, Америка, Австралия, Океания) - 1 день.

Дзарджан - район местоположения метеостанции


Название, широта, долгота, высота метеостанции:
Дзарджан 68.7°ш. 124°д. 39 м над ур. моря [Российская Федерация]

Дополнительная информация

В oтличие oт бoльшинства пoгoдных сайтoв мы публикуем пoдрoбную метеoинфoрмацию в детальнoм прoфессиoнальнoм фoрмате.

Характеристики температуры и влажнoсти вoздуха измеряются на высoте 2 м в тени вдали oт зданий и деревьев.
Скoрoсть ветра измеряется на высoте 10 м (на урoвне рoста челoвека скoрoсть ветра ниже в 1.5-2 раза). Если метеoстанция нахoдится в гoрoде или в лесу, тo скoрoсть ветра занижена на 2-4 м/с пo сравнению с oткрытым местoм. Скoрoсть ветра над акватoриями крупных рек и oзёр, а также на вершинах хoлмoв на 2-5 м/с выше, чем в oбычных услoвиях.
Атмoсфернoе давление в разных тoчках местнoсти мoжет значительнo oтличаться oт давления на метеoстанции, в зависимoсти oт услoвий рельефа (при пoдъёме на 10 м давление пoнижается примернo на 1 мм рт.ст.).